Location: Newark
(48.1500°N, 2.9667°W)
Time: 19:00:16
(UTC+00:00)

A-11 Canister half - Pass Details

Date: 26 January 2020
Orbit: 1525 x 1684 km, 47.3° (Epoch: 17 February)

Event Time Altitude Azimuth Distance (km) Brightness Sun altitude
Rises 22:02:59 0° 284° (WNW) 4,725 12.2 -48.9°
Reaches altitude 10° 22:06:01 10° 282° (WNW) 3,758 11.5 -49.4°
Enters shadow 22:10:30 33° 275° (W) 2,442 10.2 -50.0°
Maximum altitude 22:15:29 70° 201° (SSW) 1,683 - -50.6°
Drops below altitude 10° 22:25:16 10° 121° (ESE) 3,877 - -51.9°
Sets 22:28:27 0° 119° (ESE) 4,881 - -52.3°
